Location: *
(49.0044°N, 9.5056°E)
Time: 10:25:35
(UTC+00:00)

Cosmos 676 Rocket - Pass Details

Date: 22 September 2019
Orbit: 755 x 784 km, 74.0° (Epoch: 13 October)

Event Time Altitude Azimuth Distance (km) Brightness Sun altitude
Rises 18:17:36 0° 339° (NNW) 3,261 7.8 -10.1°
Reaches altitude 10° 18:20:04 10° 344° (NNW) 2,325 6.9 -10.5°
Maximum altitude 18:25:13 53° 61° (ENE) 943 4.2 -11.3°
Enters shadow 18:30:06 11° 138° (SE) 2,219 5.9 -12.1°
